| time (UTC) | temp C | wind direction | speed KPH | gust KPH | rain 1hr cm | rain 24hr cm | rain mn cm | humidity % | barometer mb |
| 20260506061531 | 7 | 136 | 0.0 | 0.0 | 0.05 | 1.02 | 0.05 | 90 | 1015.2 |
| 20260506044552 | 7 | 342 | 0.0 | 0.0 | 0.05 | 0.97 | 0.97 | 90 | 1015.6 |
| 20260506043039 | 7 | 353 | 0.0 | 0.0 | 0.05 | 0.94 | 0.94 | 90 | 1014.7 |
| 20260506041547 | 7 | 353 | 0.0 | 0.0 | 0.05 | 0.94 | 0.94 | 90 | 1015.0 |
| 20260506040042 | 7 | 350 | 0.0 | 0.0 | 0.03 | 0.91 | 0.91 | 90 | 1015.6 |
| 20260506034533 | 7 | 355 | 1.6 | 6.4 | 0.03 | 0.91 | 0.91 | 90 | 1015.4 |
| 20260506033031 | 7 | 354 | 0.0 | 0.0 | 0.00 | 0.89 | 0.89 | 90 | 1015.8 |
| 20260506031534 | 7 | 5 | 0.0 | 3.2 | 0.00 | 0.89 | 0.89 | 89 | 1015.2 |
| 20260506030026 | 7 | 32 | 0.0 | 3.2 | 0.03 | 0.89 | 0.89 | 89 | 1014.6 |
| 20260506024531 | 7 | 22 | 1.6 | 3.2 | 0.03 | 0.89 | 0.89 | 89 | 1014.5 |
| 20260506023020 | 7 | 45 | 0.0 | 3.2 | 0.03 | 0.89 | 0.89 | 89 | 1014.1 |
| 20260506021518 | 7 | 111 | 0.0 | 3.2 | 0.10 | 0.89 | 0.89 | 89 | 1014.1 |
| 20260506020015 | 7 | 42 | 4.8 | 8.0 | 0.15 | 0.86 | 0.86 | 89 | 1014.6 |
| 20260506014512 | 7 | 63 | 3.2 | 11.3 | 0.20 | 0.86 | 0.86 | 89 | 1014.2 |
| 20260506013009 | 7 | 66 | 0.0 | 8.0 | 0.23 | 0.84 | 0.84 | 89 | 1014.1 |
| 20260506011507 | 7 | 43 | 0.0 | 3.2 | 0.28 | 0.79 | 0.79 | 89 | 1013.9 |
| 20260506010003 | 7 | 334 | 1.6 | 9.7 | 0.28 | 0.69 | 0.69 | 88 | 1014.3 |
| 20260506004628 | 7 | 356 | 4.8 | 14.5 | 0.28 | 0.66 | 0.66 | 88 | 1013.6 |
| 20260506003057 | 7 | 3 | 8.0 | 16.1 | 0.23 | 0.61 | 0.61 | 88 | 1013.5 |
| 20260506001551 | 7 | 1 | 3.2 | 9.7 | 0.15 | 0.51 | 0.51 | 88 | 1013.6 |
| 20260506000050 | 7 | 55 | 3.2 | 8.0 | 0.08 | 0.41 | 0.41 | 88 | 1013.0 |
| 20260505234608 | 7 | 346 | 3.2 | 8.0 | 0.10 | 0.38 | 0.38 | 88 | 1013.1 |
| 20260505233042 | 7 | 45 | 1.6 | 11.3 | 0.10 | 0.38 | 0.38 | 87 | 1012.8 |
| 20260505231540 | 7 | 42 | 4.8 | 14.5 | 0.08 | 0.36 | 0.36 | 86 | 1012.7 |
| 20260505230036 | 7 | 346 | 4.8 | 14.5 | 0.05 | 0.30 | 0.30 | 85 | 1013.1 |
| 20260505224534 | 8 | 20 | 6.4 | 14.5 | 0.10 | 0.28 | 0.28 | 85 | 1012.0 |
| 20260505223030 | 8 | 355 | 3.2 | 6.4 | 0.10 | 0.28 | 0.28 | 84 | 1012.0 |
| 20260505221529 | 8 | 337 | 0.0 | 3.2 | 0.10 | 0.28 | 0.28 | 84 | 1012.2 |
| 20260505220026 | 8 | 359 | 1.6 | 8.0 | 0.08 | 0.25 | 0.25 | 83 | 1012.0 |
| 20260505214525 | 8 | 31 | 0.0 | 14.5 | 0.00 | 0.18 | 0.18 | 82 | 1012.2 |
| 20260505213023 | 8 | 55 | 8.0 | 16.1 | 0.00 | 0.18 | 0.18 | 80 | 1012.0 |
| 20260505211519 | 8 | 40 | 4.8 | 14.5 | 0.00 | 0.18 | 0.18 | 81 | 1012.3 |
| 20260505210116 | 8 | 78 | 6.4 | 14.5 | 0.00 | 0.18 | 0.18 | 80 | 1012.1 |
| 20260505204523 | 8 | 44 | 3.2 | 11.3 | 0.00 | 0.18 | 0.18 | 80 | 1012.6 |
| 20260505203012 | 8 | 46 | 3.2 | 12.9 | 0.00 | 0.18 | 0.18 | 79 | 1012.7 |
| 20260505201510 | 9 | 32 | 6.4 | 14.5 | 0.00 | 0.18 | 0.18 | 75 | 1013.0 |
| 20260505200019 | 9 | 36 | 4.8 | 16.1 | 0.00 | 0.18 | 0.18 | 73 | 1012.4 |
| 20260505194507 | 9 | 354 | 6.4 | 20.9 | 0.00 | 0.20 | 0.18 | 73 | 1013.2 |
| 20260505193009 | 10 | 57 | 6.4 | 20.9 | 0.00 | 0.20 | 0.18 | 69 | 1013.2 |
| 20260505191503 | 10 | 12 | 12.9 | 29.0 | 0.00 | 0.20 | 0.18 | 67 | 1013.1 |
| 20260505190107 | 11 | 334 | 9.7 | 19.3 | 0.00 | 0.20 | 0.18 | 67 | 1012.7 |
| 20260505184557 | 11 | 45 | 8.0 | 24.1 | 0.00 | 0.20 | 0.18 | 66 | 1012.4 |
| 20260505183055 | 11 | 59 | 6.4 | 19.3 | 0.00 | 0.20 | 0.18 | 68 | 1012.1 |
| 20260505181552 | 11 | 40 | 4.8 | 16.1 | 0.00 | 0.20 | 0.18 | 69 | 1012.5 |
| 20260505180049 | 11 | 17 | 4.8 | 14.5 | 0.00 | 0.20 | 0.18 | 71 | 1012.4 |
| 20260505174549 | 11 | 61 | 3.2 | 12.9 | 0.00 | 0.20 | 0.18 | 72 | 1013.2 |
| 20260505173049 | 11 | 340 | 4.8 | 14.5 | 0.00 | 0.20 | 0.18 | 71 | 1013.5 |
| 20260505171542 | 12 | 51 | 4.8 | 12.9 | 0.00 | 0.20 | 0.18 | 68 | 1012.7 |
| 20260505170041 | 12 | 63 | 4.8 | 11.3 | 0.00 | 0.20 | 0.18 | 63 | 1012.6 |
| 20260505164540 | 12 | 39 | 6.4 | 12.9 | 0.00 | 0.20 | 0.18 | 61 | 1012.8 |
| 20260505163035 | 13 | 24 | 1.6 | 14.5 | 0.00 | 0.20 | 0.18 | 61 | 1011.9 |
| 20260505161534 | 13 | 140 | 1.6 | 12.9 | 0.00 | 0.20 | 0.18 | 64 | 1011.7 |
| 20260505153026 | 11 | 56 | 6.4 | 12.9 | 0.00 | 0.20 | 0.18 | 82 | 1012.0 |
| 20260505151523 | 10 | 121 | 1.6 | 12.9 | 0.00 | 0.20 | 0.18 | 89 | 1011.9 |
| 20260505124604 | -17 | 0.0 | 0.0 | 0.00 | 0.18 | 0.15 | 1010.2 | ||
| 20260505123053 | -17 | 0.0 | 0.0 | 0.00 | 0.18 | 0.15 | 1011.8 | ||
| 20260505121547 | -17 | 0.0 | 0.0 | 0.00 | 0.18 | 0.15 | 1012.4 | ||
| 20260505120049 | -17 | 0.0 | 0.0 | 0.00 | 0.18 | 0.15 | 1011.9 | ||
| 20260505114537 | -17 | 0.0 | 0.0 | 0.03 | 0.18 | 0.15 | 1011.1 | ||
| 20260505113033 | -17 | 0.0 | 0.0 | 0.03 | 0.18 | 0.15 | 1010.5 | ||
| 20260505111526 | -17 | 0.0 | 0.0 | 0.15 | 0.18 | 0.15 | 1010.5 | ||
| 20260505101504 | 17 | 9 | 6.4 | 30.6 | 0.00 | 0.03 | 0.00 | 85 | 1008.6 |
| 20260505100057 | 17 | 63 | 9.7 | 24.1 | 0.00 | 0.03 | 0.00 | 84 | 1008.2 |
| 20260505094551 | 18 | 58 | 11.3 | 17.7 | 0.00 | 0.03 | 0.00 | 83 | 1008.1 |
| 20260505093048 | 18 | 186 | 0.0 | 0.0 | 0.00 | 0.03 | 0.00 | 84 | 1007.5 |
| 20260505091550 | 18 | 186 | 0.0 | 0.0 | 0.00 | 0.03 | 0.00 | 83 | 1007.3 |
| 20260505090047 | 19 | 186 | 0.0 | 0.0 | 0.00 | 0.03 | 0.00 | 82 | 1007.5 |
| 20260505084544 | 20 | 187 | 0.0 | 3.2 | 0.00 | 0.03 | 0.00 | 81 | 1007.4 |
| 20260505083033 | 20 | 190 | 0.0 | 0.0 | 0.00 | 0.03 | 0.00 | 80 | 1007.3 |
| 20260505081531 | 20 | 154 | 3.2 | 6.4 | 0.00 | 0.03 | 0.00 | 79 | 1007.5 |
| 20260505080027 | 20 | 179 | 1.6 | 6.4 | 0.00 | 0.03 | 0.00 | 79 | 1007.6 |
| 20260505074525 | 20 | 77 | 6.4 | 12.9 | 0.00 | 0.03 | 0.00 | 79 | 1008.0 |
| 20260505073032 | 20 | 245 | 3.2 | 16.1 | 0.00 | 0.03 | 0.00 | 79 | 1007.1 |
| 20260505071518 | 20 | 289 | 1.6 | 12.9 | 0.00 | 0.03 | 0.00 | 78 | 1007.3 |
| 20260505070026 | 20 | 191 | 0.0 | 17.7 | 0.00 | 0.03 | 0.00 | 78 | 1007.1 |
| 20260505064512 | 21 | 227 | 1.6 | 12.9 | 0.00 | 0.03 | 0.00 | 77 | 1006.8 |